[[{"header":{"parameterUnit":"m.s-1","parameterCategory":1,"la1":30.2992,"la2":30.254,"lo1":-89.0895,"lo2":-89.0443,"dy":0.0025,"dx":0.0025,"nx":19,"ny":19,"refTime":"2026-05-18T09:00:00:Z","depth":0,"parameterNumber":2,"parameterNumberName":"U-component_of_WINDS"},"data":[0,0,0,-3.5703,-3.5706,-3.5852,-3.5853,-3.6038,-3.6039,0,0,0,0,0,0,0,0,0,0,0,-3.5658,-3.5659,-3.5703,-3.5706,-3.5852,-3.5853,-3.6037,-3.6039,0,0,0,0,0,0,0,0,0,0,0,-3.5657,-3.5659,-3.566,-3.5707,-3.5852,-3.5853,-3.6037,-3.5927,0,0,0,0,0,0,0,0,0,0,-3.5786,-3.5743,-3.5658,-3.566,-3.5708,-3.5852,-3.5853,-3.5922,-3.5934,-3.597,0,-3.6002,0,-3.6023,-3.6051,-3.6052,0,0,0,-3.5707,-3.5733,-3.5774,-3.5661,-3.5709,-3.5852,-3.5787,-3.5929,-3.5943,-3.5986,-3.6004,-3.6011,-3.6027,-3.6053,-3.6053,-3.6257,-3.6258,0,0,-3.5699,-3.5683,-3.5764,-3.5782,-3.576,-3.5782,-3.5791,-3.5937,-3.5956,-3.6005,-3.6016,-3.603,-3.6054,-3.6055,-3.6256,-3.6257,0,0,0,-3.5675,-3.5678,-3.5715,-3.5775,-3.5801,-3.5786,-3.5797,-3.595,-3.5963,-3.6018,-3.6032,-3.6055,-3.6057,-3.6255,-3.6257,-3.6284,0,0,0,-3.567,-3.5664,-3.5711,-3.5703,-3.5798,-3.5877,-3.5806,-3.5953,-3.597,-3.6031,-3.6055,-3.6059,-3.6254,-3.6256,-3.6281,-3.6299,0,0,0,-3.5649,-3.5661,-3.5682,-3.5702,-3.5764,-3.5875,-3.5897,-3.5957,-3.5978,-3.6052,-3.6059,-3.6254,-3.6256,-3.6279,-3.6295,-3.6346,0,0,0,-3.5621,-3.5705,-3.5682,-3.5781,-3.5763,-3.5892,-3.5896,-3.5993,-3.606,-3.6056,-3.6254,-3.6256,-3.6278,-3.6292,-3.6343,-3.6385,-3.6402,0,0,-3.5718,-3.5716,-3.5775,-3.5759,-3.5887,-3.5871,-3.6004,-3.608,-3.6102,-3.6204,-3.6209,-3.6282,-3.6294,-3.6346,-3.6504,-3.6516,0,0,0,-3.58,-3.5842,-3.588,-3.5943,-3.6003,-3.6056,-3.6114,-3.6143,-3.623,-3.6151,-3.6316,-3.6324,-3.6355,-3.6375,-3.6387,-3.6413,-3.6266,-3.6266,-3.6266,-3.5912,-3.5936,-3.6035,-3.6077,-3.6138,-3.6197,-3.6248,-3.6297,-3.6303,-3.6342,-3.6371,-3.6464,-3.6488,-3.6496,-3.6524,-3.6398,-3.6398,-3.6398,-3.6398,-3.6053,-3.6116,-3.6124,-3.6222,-3.6247,-3.6331,-3.6392,-3.6393,-3.6475,-3.6444,-3.6472,-3.6435,-3.651,-3.6535,-3.64,-3.64,-3.64,-3.64,-3.6399,-3.6127,-3.6161,-3.6195,-3.6288,-3.6357,-3.6397,-3.6475,-3.6495,-3.6515,-3.6544,-3.6576,-3.6576,-3.6576,-3.6558,-3.6559,-3.6559,-3.6559,-3.6559,-3.656,-3.6189,-3.6226,-3.6289,-3.6361,-3.6403,-3.6463,-3.6524,-3.6567,-3.662,-3.6629,-3.6629,-3.663,-3.6514,-3.6482,-3.6565,-3.6564,-3.6563,-3.6563,-3.6562,-3.6319,-3.6293,-3.6389,-3.6432,-3.6518,-3.6585,-3.6612,-3.6697,-3.6736,-3.6774,-3.6771,-3.6682,-3.6681,-3.6672,-3.6646,-3.6766,-3.6766,-3.6766,-3.6766,-3.6379,-3.6382,-3.6484,-3.6552,-3.662,-3.6654,-3.6762,-3.6811,-3.6857,-3.6883,-3.6869,-3.6838,-3.6828,-3.6833,-3.6821,-3.6797,-3.6953,-3.6953,-3.6953,-3.646,-3.647,-3.6557,-3.6602,-3.6671,-3.673,-3.6832,-3.6909,-3.6957,-3.6961,-3.6903,-3.6895,-3.6844,-3.6827,-3.6826,-3.6807,-3.6763,0,0]},{"header":{"parameterUnit":"m.s-1","parameterCategory":1,"la1":30.2992,"la2":30.254,"lo1":-89.0895,"lo2":-89.0443,"dy":0.0025,"dx":0.0025,"nx":19,"ny":19,"refTime":"2026-05-18T09:00:00:Z","depth":0,"parameterNumber":3,"parameterNumberName":"V-component_of_WINDS"},"data":[0,0,0,3.5364,3.5365,3.5404,3.5404,3.5463,3.5464,0,0,0,0,0,0,0,0,0,0,0,3.536,3.5361,3.5364,3.5366,3.5404,3.5404,3.5463,3.5464,0,0,0,0,0,0,0,0,0,0,0,3.536,3.5361,3.5361,3.5366,3.5404,3.5404,3.5463,3.543,0,0,0,0,0,0,0,0,0,0,3.5391,3.5394,3.536,3.5361,3.5366,3.5404,3.5404,3.5428,3.5432,3.545,0,3.5469,0,3.5468,3.5468,3.5469,0,0,0,3.536,3.5391,3.5395,3.5362,3.5366,3.5404,3.5385,3.543,3.5435,3.5456,3.547,3.5472,3.5469,3.5469,3.5469,3.5597,3.5598,0,0,3.5358,3.537,3.5392,3.5398,3.5394,3.5384,3.5386,3.5433,3.5449,3.547,3.5473,3.547,3.5469,3.547,3.5596,3.5597,0,0,0,3.5356,3.5369,3.5372,3.5396,3.5402,3.5385,3.5388,3.5447,3.5447,3.5474,3.547,3.547,3.5471,3.5595,3.5596,3.5652,0,0,0,3.5354,3.5368,3.5371,3.5379,3.5402,3.5425,3.5401,3.5444,3.5448,3.547,3.547,3.5471,3.5594,3.5596,3.5648,3.5676,0,0,0,3.5355,3.5368,3.5376,3.538,3.5397,3.5424,3.5427,3.5444,3.5447,3.5469,3.5472,3.5593,3.5595,3.5645,3.5671,3.5714,0,0,0,3.536,3.5424,3.5377,3.5447,3.5397,3.5459,3.5426,3.5471,3.5497,3.547,3.5594,3.5596,3.5644,3.5667,3.5711,3.5753,3.5772,0,0,3.5448,3.5435,3.5475,3.5435,3.5508,3.5452,3.5533,3.5544,3.5533,3.5576,3.5579,3.565,3.567,3.5713,3.5872,3.5887,0,0,0,3.5507,3.5537,3.5553,3.5579,3.559,3.5601,3.5598,3.5602,3.5638,3.5558,3.5676,3.5688,3.5713,3.5732,3.5745,3.5766,3.5606,3.5605,3.5605,3.5649,3.5634,3.57,3.569,3.5715,3.5713,3.5732,3.5736,3.5712,3.5741,3.5753,3.5852,3.5875,3.5885,3.5906,3.5774,3.5774,3.5774,3.5774,3.5777,3.5816,3.5785,3.5837,3.5821,3.5864,3.5864,3.5846,3.5884,3.584,3.5861,3.5815,3.5902,3.592,3.5778,3.5778,3.5777,3.5777,3.5777,3.5868,3.5885,3.589,3.5926,3.5956,3.5943,3.5982,3.5965,3.5949,3.5969,3.5981,3.598,3.5978,3.5976,3.5977,3.5977,3.5977,3.5978,3.5978,3.5961,3.5965,3.6001,3.6019,3.6034,3.6051,3.605,3.6063,3.6074,3.6059,3.6059,3.6033,3.5913,3.5884,3.5983,3.5982,3.5981,3.5981,3.5981,3.6097,3.6064,3.6119,3.6134,3.6154,3.6185,3.6164,3.6194,3.6202,3.6222,3.6192,3.6106,3.6091,3.6081,3.6056,3.6195,3.6195,3.6195,3.6195,3.6175,3.6166,3.6219,3.6245,3.6268,3.6254,3.6316,3.6316,3.631,3.6315,3.6292,3.6258,3.6248,3.6239,3.6225,3.6202,3.6375,3.6375,3.6375,3.6258,3.6251,3.6307,3.6303,3.6317,3.633,3.6388,3.6418,3.6405,3.6382,3.6318,3.631,3.6255,3.6238,3.6214,3.6193,3.615,0,0]}]]